Tracking 30743 objects as of 21-Jun-2025
HD Live streaming from Space Station
objects crossing your sky now

COSMOS 1806

Track COSMOS 1806 now!
COSMOS 1806 is classified as:


NORAD ID: 17213
Int'l Code: 1986-098A
Perigee: 7,920.2 km
Apogee: 32,499.6 km
Inclination: 68.5 °
Period: 718.8 minutes
Semi major axis: 26580 km
RCS: 14.9345 m2 (large)
Launch date: December 12, 1986
Source: Commonwealth of Independent States (former USSR) (CIS)
Launch site: PLESETSK MISSILE AND SPACE COMPLEX (PKMTR)
Your satellite tracking list
Your tracking list is empty




NASA's NSSDC Master Catalog

Two Line Element Set (TLE):
1 17213U 86098A   25171.51924256  .00000200  00000-0  00000-0 0  9997
2 17213  68.5435 159.8627 4623521  88.2412  45.8976  2.00331268282054
Source of the keplerian elements: AFSPC